Regional Weather Roundup
Issued by NWS Kansas City/Pleasant Hill, MO

Home | Current Version | Previous Version | Graphics & Text | Print | Product List | Glossary Off
Versions: 1 2 3 4 5 6 7 8 9 10 11 12 13 14 15 16 17 18 19 20 21 22 23 24 25 26 27 28 29 30 31 32 33 34 35 36 37 38 39 40 41 42 43 44 45 46 47 48 49 50

000
ASUS43 KEAX 250404
RWREAX

WEATHER ROUNDUP FOR EASTERN KANSAS AND NORTHWEST MISSOURI
NATIONAL WEATHER SERVICE KANSAS CITY/PLEASANT HILL MO
1000 PM CST SAT JAN 24 2015

KSZ040-057-103>105-MOZ028-029-037-043-250500-
...KANSAS CITY METROPOLITAN AREA...

CITY           SKY/WX    TMP DP  RH WIND       PRES   REMARKS
K.C. INTL      LGT RAIN  47  41  80 W15G23    29.71R
K.C. DOWNTOWN  LGT RAIN  50  41  71 W14G20    29.72R
LEES SUMMIT    LGT RAIN  50  39  66 W16G28    29.72R
OLATHE - IXD   LGT RAIN  47  42  83 SW10      29.75S
OLATHE - OJC   LGT RAIN  48  43  82 W8        29.73R
LAWRENCE       LGT RAIN  47  42  83 CALM      29.73F

$$

MOZ001>008-011>017-020>025-030>033-038>040-044>046-053-054-250500-
...NORTHERN AND CENTRAL MISSOURI...

CITY           SKY/WX    TMP DP  RH WIND       PRES   REMARKS
ST. JOSEPH     LGT RAIN  44  39  82 SW8       29.69F
MOSBY          CLOUDY    54  30  40 W14G20    29.69S
WARRENSBURG    CLOUDY    50  32  50 SW17G24   29.70S
WHITEMAN AFB   CLOUDY    51  33  50 SW20      29.69F
CLINTON        CLOUDY    52  34  50 SW10G18   29.73F
SEDALIA        CLOUDY    51  32  48 SW15      29.70F
WARSAW         NOT AVBL
MARSHALL       CLOUDY    48  36  61 SW9       29.70F
CHILLICOTHE      N/A     49  30  48 SW5       29.66F
MOBERLY        MOCLDY    45  30  57 SW8       29.68F
KIRKSVILLE     CLOUDY    46  31  55 SW8       29.64F

$$

MOZ041-047>049-056>058-063>065-088>090-097-250500-
...EASTERN AND SOUTHERN MISSOURI...

CITY           SKY/WX    TMP DP  RH WIND       PRES   REMARKS
ST. LOUIS INTL CLOUDY    52  31  44 SW14      29.72F
SPIRIT OF STL  CLOUDY    52  31  44 SW9       29.70F
COLUMBIA       MOCLDY    46  33  60 SW9       29.69F
JEFFERSON CITY CLOUDY    52  33  48 SW8       29.71F
MEXICO         CLOUDY    48  37  66 SW13      29.68F
HANNIBAL       CLOUDY    46  30  53 SW9       29.66S
ROLLA          CLOUDY    47  31  53 S13       29.72F
LEBANON        CLOUDY    50  32  50 SW14      29.77F
OSAGE BEACH    CLOUDY    52  30  43 SW13      29.73F
SPRINGFIELD    CLOUDY    50  32  50 SW16      29.79F
NEVADA         CLOUDY    50  32  50 S10G17    29.77S
JOPLIN         CLOUDY    50  31  48 SW17      29.81F
WEST PLAINS    CLOUDY    48  30  49 SW12      29.83F

$$

IAZ060-094-KSZ022-034>040-054-083-096-NEZ052-066-093-250500-
...KANSAS...SOUTHEAST NEBRASKA AND IOWA...

CITY           SKY/WX    TMP DP  RH WIND       PRES   REMARKS
TOPEKA         LGT RAIN  51  39  63 W8G17     29.73F
MANHATTAN      CLOUDY    49  39  68 W8        29.75S
EMPORIA        CLOUDY    48  39  71 W7        29.77F
CHANUTE        CLOUDY    54  31  41 W14       29.80R
WICHITA        CLOUDY    55  33  43 W9        29.81F
OMAHA          CLOUDY    46  39  76 W8        29.60F
LINCOLN        CLOUDY    50  41  71 W18G26    29.66S
FALLS CITY     LGT RAIN  46  39  76 W10       29.66F
LAMONI         CLOUDY    47  30  51 W9        29.62S
DES MOINES     LGT RAIN  43  35  73 SW10      29.58F

$$



USA.gov is the U.S. government's official web portal to all federal, state and local government web resources and services.